EHI
0 0 0 0 0 0 0 0 0 0 0 0 0 0 0 0 0 0 0 0 0 0 0 0 0 0 0 0 0 0 0 0 0 0 0 0 0 0 0 0 0 0 0 0
0 0 0 0 0 0 0 0 0 0 0 0 0 0 0 0 0 0 0 0 0 0 0 0 0 0 0 0 0 0 0 0 0 0 0 0 0 0 0 0 0 0 0 0
0 0 0 0 0 0 0 0 0 0 0 0 0 0 0 0 0 0 0 0 0 0 0 0 0 0 0 0 0 0 0 0 0 0 0 0 0 0 0 0 0 0 0 0
0 0 0 0 0 0 0 0 0 0 0 0 0 0 0 0 0 0 0 0 0 0 0 0 0 0 0 0 0 0 0 0 0 0 0 0 0 0 0 0 0 0 0 0
0 0 0 0 0 0 0 0 0 0 0 0 0 0 0 0 0 0 0 0 0 0 0 0 0 0 0 0 0 0 0 0 0 0 0 0 0 0 0 0 0 0 0 0
0 0 0 0 0 0 0 0 0 0 0 0 0 0 0 0 0 0 0 0 0 0 0 0 0 0 0 0 0 0 0 0 0 0 0 0 0 0 0 0 0 0 0 0
0 0 0 0 0 0 0 0 0 0 0 0 0 0 0 0 0 0 0 0 0 0 0 0 0 0 0 0 0 0 0 0 0 0 0 0 0 0 0 0 0 0 0 0
0 0 0 0 0 0 0 0 0 0 0 0 0 0 0 0 0 0 0 0 0 0 0 0 0 0 0 0 0 0 0 0 0 0 0 0 0 0 0 0 0 0 0 0
0 0 0 0 0 0 0 0 0 0 0 0 0 0 0 0 0 0 0 0 0 0 0 0 0 0 0 0 0 0 0 0 0 0 0 0 0 0 0 0 0 0 0 0
0 0 0 0 0 0 0 0 0 0 0 0 0 0 0 0 0 0 0 0 0 0 0 0 0 0 0 0 0 0 0 0 0 0 0 0 0 0 0 0 0 0 0 0
0 0 0 0 0 0 0 0 0 0 0 0 0 0 0 0 0 0 0 0 0 0 0 0 0 0 0 0 0 0 0 0 0 0 0 0 0 0 0 0 0 0 0 0
0 0 0 0 0 0 0 0 0 0 0 0 0 0 0 0 0 0 0 0 0 0 0 0 0 0 0 0 0 0 0 0 0 0 0 0 0 0 0 0 0 0 0 0
0 0 0 0 0 0 0 0 0 0 0 0 0 0 0 0 0 0 0 0 0 0 0 0 0 0 0 0 0 0 0 0 0 0 0 0 0 0 0 0 0 0 0 0
0 0 0 0 0 0 0 0 0 0 0 0 0 0 0 0 0 0 0 0 0 0 0 0 0 0 0 0 0 0 0 0 0 0 0 0 0 0 0 0 0 0 0 0
0 0 0 0 0 0 0 0 0 0 0 0 0 0 0 0 0 0 0 0 0 0 0 0 0 0 0 0 0 0 0 0 0 0 0 0 0 0 0 0 0 0 0 0
0 0 0 0 0 0 0 0 0 0 0 0 0 0 0 0 0 0 0 0 0 0 0 0 0 0 0 0 0 0 0 0 0 0 0 0 0 0 0 0 0 0 0 0
0 0 0 0 0 0 0 0 0 0 0 0 0 0 0 0 0 0 0 0 0 0 0 0 0 0 0 0 0 0 0 0 0 0 0 0 0 0 0 0 0 0 0 0
0 0 0 0 0 0 0 0 0 0 0 0 0 0 0 0 0 0 0 0 0 0 0 0 0 0 0 0 0 0 0 0 0 0 0 0 0 0 0 0 0 0 0 0
0 0 0 0 0 0 0 0 0 0 0 0 0 0 0 0 0 0 0 0 0 0 0 0 0 0 0 0 0 0 0 0 0 0 0 0 0 0 0 0 0 0 0 0
0 0 0 0 0 0 0 0 0 0 0 0 0 0 0 0 0 0 0 0 0 0 0 0 0 0 0 0 0 0 0 0 0 0 0 0 0 0 0 0 0 0 0 0
0 0 0 0 0 0 0 0 0 0 0 0 0 0 0 0 0 0 0 0 0 0 0 0 0 0 0 0 0 0 0 0 0 0 0 0 0 0 0 0 0 0 0 0
0 0 0 0 0 0 0 0 0 0 0 0 0 0 0 0 0 0 0 0 0 0 0 0 0 0 0 0 0 0 0 0 0 0 0 0 0 0 0 0 0 0 0 0
0 0 0 0 0 0 0 0 0 0 0 0 0 0 0 0 0 0 0 0 0 0 0 0 0 0 0 0 0 0 0 0 0 0 0 0 0 0 0 0 0 0 0 0
0 0 0 0 0 0 0 0 0 0 0 0 0 0 0 0 0 0 0 0 0 0 0 0 0 0 0 0 0 0 0 0 0 0 0 0 0 0 0 0 0 0 0 0
0 0 0 0 0 0 0 0 0 0 0 0 0 0 0 0 0 0 0 0 0 0 0 0 0 0 0 0 0 0 0 0 0 0 0 0 0 0 0 0 0 0 0 0
0 0 0 0 0 0 0 0 0 0 0 0 0 0 0 0 0 0 0 0 0 0 0 0 0 0 0 0 0 0 0 0 0 0 0 0 0 0 0 0 0 0 0 0
0 0 0 0 0 0 0 0 0 0 0 0 0 0 0 0 0 0 0 0 0 0 0 0 0 0 0 0 0 0 0 0 0 0 0 0 0 0 0 0 0 0 0 0
Wind_Speed
10 9 6 8 9 11 15 14 11 11 13 14 7 5 4 2 5 7 8 10 12 12 12 12 11 11 10 9 9 8 7 6 6 4 3 4 5 6 7 7 8 7 7 7
7 9 6 9 13 15 17 18 19 17 20 14 8 6 4 4 5 8 10 12 13 13 13 14 13 12 11 10 9 8 8 7 5 4 4 5 6 7 7 7 7 7 7 7
6 2 4 11 15 16 11 12 10 17 17 8 7 7 6 6 7 9 11 11 14 15 15 14 14 13 12 10 9 9 8 7 6 5 5 6 7 7 7 7 8 7 7 8
4 3 11 12 3 6 11 12 13 13 12 9 8 5 6 7 9 10 10 11 12 13 13 12 12 12 11 10 10 9 8 7 7 6 6 6 6 7 8 7 7 6 7 8
3 5 11 12 7 5 7 10 12 17 17 15 7 5 8 11 11 12 10 10 11 12 12 12 12 13 12 11 11 10 9 9 8 7 7 6 7 8 8 7 6 6 6 8
4 6 11 11 2 2 3 9 10 12 14 12 3 3 9 5 5 7 6 6 8 10 11 12 13 13 13 13 12 12 11 10 8 8 7 7 8 7 6 5 6 6 6 7
8 9 14 9 5 6 5 10 5 9 11 8 9 12 8 4 5 6 7 7 8 10 12 13 14 15 15 14 15 13 10 9 8 8 8 7 6 5 5 5 5 5 6 6
8 9 17 7 9 12 12 4 3 5 7 8 10 11 9 8 8 8 8 8 9 10 11 11 14 16 16 16 13 11 10 9 9 8 7 6 5 5 5 5 5 5 5 6
15 16 8 11 13 9 4 5 6 5 6 7 9 11 11 10 10 9 10 9 9 10 10 11 15 16 17 14 12 12 11 10 8 8 7 6 5 5 4 3 3 4 4 5
8 11 9 8 10 11 11 12 12 11 10 9 11 13 13 11 10 9 10 11 10 11 13 14 15 15 14 12 13 13 12 10 8 8 7 6 5 4 4 3 3 3 3 4
10 8 8 10 12 15 15 14 13 13 12 12 12 14 13 12 11 9 9 10 11 14 16 16 15 15 12 13 15 14 12 10 9 8 6 5 5 5 5 4 4 4 3 3
14 8 8 10 7 8 10 13 13 13 13 11 10 14 13 12 10 8 9 10 12 15 15 14 15 15 14 14 16 15 12 11 8 7 6 5 4 4 8 8 9 9 8 7
19 15 14 16 14 12 12 13 13 12 13 13 10 10 11 11 9 8 8 11 15 17 15 13 15 16 15 15 16 16 13 12 9 8 7 6 5 4 3 4 7 8 8 8
15 15 17 15 15 15 14 14 12 12 10 10 10 9 9 10 9 9 11 13 13 12 13 14 15 17 17 16 17 16 14 14 12 8 7 7 6 5 4 3 2 3 4 6
16 15 17 15 14 13 11 10 11 11 10 10 9 9 10 11 12 12 11 9 9 11 13 15 16 17 17 18 18 17 14 10 10 8 7 7 6 5 4 4 3 3 2 3
12 12 12 13 13 12 10 10 10 11 10 10 10 10 11 11 12 11 9 8 11 15 16 17 18 16 17 18 18 14 13 18 15 10 8 7 6 6 5 4 4 3 2 2
10 10 9 9 9 9 8 8 9 10 10 11 12 11 11 10 10 10 10 10 12 14 14 16 15 13 17 19 18 13 12 15 20 12 9 8 7 7 6 5 4 3 3 3
3 4 5 6 6 8 8 9 9 10 10 11 12 11 10 10 12 13 10 8 9 11 12 11 11 13 17 18 15 12 12 11 11 10 9 9 8 7 6 6 5 5 3 3
7 7 7 8 7 7 8 9 10 10 11 10 11 12 12 12 11 11 8 8 11 14 11 11 21 18 17 20 19 11 12 13 12 10 9 12 10 7 7 6 6 5 4 3
6 6 6 7 7 7 8 9 10 10 10 10 11 12 13 12 11 10 8 11 12 9 8 12 16 14 16 19 23 12 14 14 14 12 11 10 9 9 8 7 6 6 5 4
6 7 7 8 9 9 9 10 11 12 11 11 11 13 14 13 11 9 8 11 8 8 10 18 14 12 14 17 24 13 14 14 14 13 12 11 10 9 9 8 7 7 6 5
6 8 9 10 11 12 10 10 11 13 13 12 12 12 12 13 11 9 10 10 7 11 10 10 10 16 20 23 15 14 14 14 13 12 11 11 11 10 9 9 8 7 6 5
8 9 11 12 13 14 14 12 12 12 13 13 13 13 12 11 8 8 10 6 5 12 10 8 15 24 29 19 13 14 15 15 14 13 12 12 11 10 9 10 8 7 6 6
10 11 11 12 12 13 15 14 13 11 13 13 12 12 11 10 9 8 8 8 10 12 8 12 22 27 29 14 13 13 14 14 13 12 12 11 10 9 9 9 8 7 7 7
11 11 12 12 12 12 13 14 13 12 12 11 11 11 9 7 8 7 5 6 10 12 7 14 23 26 19 11 13 13 13 13 13 12 12 12 11 10 10 9 9 8 8 7
11 11 12 12 12 12 11 11 11 10 9 10 10 8 7 6 7 7 6 6 8 11 8 7 11 18 13 12 12 13 12 13 15 13 12 12 12 11 10 10 11 9 8 7
12 11 10 11 9 9 9 10 11 11 10 10 12 9 7 6 6 6 7 6 6 6 6 7 8 10 11 11 11 12 11 11 11 11 12 11 11 11 11 11 9 9 8 8
Wind_Direction
270 279 249 240 238 210 214 221 230 244 249 257 257 281 295 243 188 189 185 188 192 192 188 185 185 186 185 183 176 174 180 198 215 230 260 277 280 280 280 279 285 281 282 288
274 258 253 263 251 236 230 234 244 261 271 270 282 277 267 259 226 214 209 201 198 195 191 190 189 187 182 180 173 169 181 196 203 219 243 257 267 272 275 276 278 278 279 284
268 231 336 267 242 223 219 218 210 236 248 273 269 254 248 252 245 232 222 206 199 198 197 193 188 183 181 177 166 170 182 191 198 211 236 252 267 276 278 280 278 277 278 279
272 304 250 246 253 231 221 235 220 240 261 273 267 285 279 259 249 246 230 210 201 196 194 186 177 173 170 167 167 174 183 192 197 207 228 246 260 269 274 274 274 276 278 279
231 251 269 277 250 204 213 264 226 231 249 259 269 324 285 253 232 231 226 207 197 188 181 175 174 169 165 170 171 178 190 194 196 201 218 236 250 260 266 271 278 279 281 284
207 225 247 254 179 114 128 276 244 209 230 245 179 277 268 247 216 224 218 193 178 170 170 175 174 166 170 178 180 191 194 192 190 195 210 228 242 254 264 274 278 286 291 290
218 232 256 259 146 126 187 248 222 194 214 215 195 221 240 215 222 220 213 193 171 169 179 181 171 169 180 185 193 192 182 181 187 195 209 225 240 254 269 277 285 293 297 298
192 215 250 206 155 194 223 269 244 219 220 222 230 248 255 244 236 222 212 195 179 180 185 177 173 177 187 194 188 173 172 178 186 196 210 222 233 252 261 273 290 297 302 305
199 218 241 174 204 228 280 283 271 261 257 248 254 261 262 257 244 227 212 201 189 186 186 184 183 185 193 190 171 167 171 179 186 196 205 210 222 239 254 266 275 288 299 306
241 249 255 235 237 254 256 254 259 260 262 257 255 262 266 264 254 233 214 202 192 188 195 197 193 193 193 176 167 167 175 181 186 193 201 208 217 221 225 239 258 276 293 304
254 263 284 266 243 246 255 260 264 264 258 252 254 262 262 263 257 237 218 201 193 200 205 203 194 193 186 173 168 171 177 182 186 189 191 203 214 215 217 214 221 242 246 267
256 255 250 262 260 255 259 265 266 270 276 268 248 257 264 263 258 240 219 200 201 208 210 202 193 191 185 175 172 173 179 184 185 184 188 194 203 231 249 238 249 263 270 279
264 270 267 272 275 274 271 273 274 272 272 278 271 257 260 264 259 240 219 206 208 211 209 200 193 192 187 178 176 179 181 180 181 183 185 189 192 200 229 256 254 257 264 282
274 279 277 274 274 274 271 274 279 281 280 277 279 276 268 268 265 247 232 221 214 206 203 199 196 195 187 181 180 182 179 181 180 181 181 183 186 191 197 207 237 270 275 285
267 267 271 277 278 279 281 288 294 294 296 292 283 277 272 267 263 255 244 224 205 203 204 202 203 196 182 181 183 183 180 179 177 174 177 179 181 184 192 201 213 233 253 284
277 280 282 283 285 289 299 304 301 299 301 297 293 283 274 266 264 261 247 211 203 211 208 204 206 193 180 181 183 183 184 184 175 173 176 177 179 184 191 198 206 216 228 228
279 286 290 295 302 308 313 314 308 306 308 304 297 291 287 281 275 266 252 225 218 220 212 207 202 183 178 181 182 181 178 183 180 178 178 178 180 185 189 190 196 204 215 218
339 342 343 337 333 329 327 324 316 310 302 296 296 296 293 283 273 269 259 235 225 228 219 205 190 180 179 180 181 179 175 176 176 176 176 177 181 183 184 188 193 199 209 225
17 7 355 347 337 328 318 310 304 299 296 297 299 296 289 279 273 271 262 232 225 233 221 196 195 186 182 183 179 178 175 174 174 175 174 183 184 182 184 186 190 192 193 195
354 344 333 324 321 316 307 302 299 298 297 300 299 297 294 288 282 276 261 242 235 229 196 191 196 189 182 185 183 179 177 176 175 174 175 179 180 182 185 187 187 189 190 190
327 322 320 315 309 305 301 301 300 297 295 294 291 289 289 287 282 273 265 264 249 206 191 198 195 188 182 185 186 182 180 177 175 174 176 178 180 182 185 185 187 189 189 187
312 313 311 306 301 299 298 295 292 290 289 287 284 283 285 287 284 272 253 253 250 205 194 197 192 190 187 186 187 183 182 179 176 173 174 176 179 182 184 183 185 187 184 179
301 301 300 297 294 293 293 289 285 283 283 281 280 280 278 276 274 272 277 254 223 216 205 198 197 195 193 188 186 184 182 180 177 175 175 177 178 180 181 181 181 180 176 176
295 293 288 286 286 288 289 286 280 276 274 275 271 267 267 275 277 258 253 258 235 226 211 203 203 200 195 188 184 185 183 181 177 175 173 173 174 175 176 176 176 174 175 175
286 286 285 285 285 283 282 282 281 278 276 275 271 263 253 246 257 271 265 247 240 237 218 209 207 203 195 186 185 185 183 182 177 172 172 171 173 174 175 174 174 173 174 175
285 283 281 276 276 279 281 281 281 278 276 277 277 269 259 252 252 260 261 248 235 235 220 198 198 202 192 184 185 183 180 181 179 176 173 171 172 172 173 174 171 172 173 172
280 279 281 282 278 273 274 276 278 278 274 272 276 274 263 258 254 253 253 248 237 230 212 194 190 192 186 181 181 180 178 178 175 172 171 170 171 173 173 171 171 169 167 167